{"data":{"norad_id":55171,"intl_designator":"2023-004AH","name":"ONEWEB-0631","alt_names":[],"object_type":"PAYLOAD","status":"ACTIVE","operator":null,"country":"UK","launch_date":"2023-01-10","launch_site_code":"AFETR","launch_vehicle":null,"mission":null,"orbit_class":"UNKNOWN","rcs_meters":null,"size_class":null,"mass_kg":null,"dimensions":null,"purposes":["comms"],"wikipedia_slug":null,"has_3d_model":false,"image_url":null,"decayed_at":null,"tle_current":{"epoch":"2026-05-25T02:39:42.306912Z","epoch_age_seconds":59436,"freshness":"FRESH","line1":"1 55171U 23004AH  26145.11090633  .00000045  00000+0  81237-4 0  9992","line2":"2 55171  87.9168 340.0278 0001714 105.0829 255.0493 13.18687476166633","mean_motion":13.18687476,"eccentricity":0.0001714,"inclination_deg":87.9168,"raan_deg":340.0278,"arg_perigee_deg":105.0829,"mean_anomaly_deg":255.0493,"bstar":8.1237e-5,"rev_number":16663,"period_min":109.19949011482,"perigee_km":1188.4403460543,"apogee_km":1191.034613426,"semimajor_km":7567.8744797401,"source":"CELESTRAK","updated_at":"2026-05-25T13:38:22.646266Z"}}}